User: anonymous   Login
Location: La Bilong�re
(48.1297°N, 1.4584°W)
Time: 23:55:50
(UTC+00:00)
Language:

Cosmos 1378 - Orbit

View from above orbital plane
View from above orbital plane
View from above satellite
View from above satellite

Ground track
Ground track

The orbit data is extracted from the following two-line orbital elements,

1 13271U 82059A   21138.60653051  .00001038  00000-0  41939-4 0  9991
2 13271  82.4669 216.3823 0006006 338.7660  21.3327 15.23625103127524
Epoch (UTC): 18 May 2021 14:33:24
Eccentricity: 0.0006006
inclination: 82.4669°
perigee height: 491 km
apogee height: 499 km
right ascension of ascending node: 216.3823°
argument of perigee: 338.7660°
revolutions per day: 15.23625103
mean anomaly at epoch: 21.3327°
orbit number at epoch: 12752

The dashed part of the orbit path shows where the satellite is in the earth's shadow,  

DLR